Hourly Weather Luderitz

Today, 17 June, Thursday

Time Temperature Precipitation Wind Pressure Humidity
00:00 +15°C° 0 mm 0 mps 761 mmHg 72%
01:00 +14°C° 0 mm 0 mps 760 mmHg 77%
02:00 +14°C° 0 mm 0 mps 760 mmHg 76%
03:00 +15°C° 0 mm 1 mps 760 mmHg 76%
04:00 +15°C° 0 mm 1 mps 760 mmHg 76%
05:00 +15°C° 0 mm 1 mps 761 mmHg 75%
06:00 +15°C° 0 mm 1 mps 761 mmHg 74%
07:00 +15°C° 0 mm 2 mps 761 mmHg 73%
08:00 +17°C° 0 mm 2 mps 762 mmHg 64%
09:00 +19°C° 0 mm 2 mps 762 mmHg 55%
10:00 +21°C° 0 mm 2 mps 762 mmHg 46%
11:00 +22°C° 0 mm 3 mps 762 mmHg 41%
12:00 +23°C° 0 mm 4 mps 761 mmHg 36%
13:00 +25°C° 0 mm 4 mps 761 mmHg 31%
14:00 +25°C° 0 mm 4 mps 761 mmHg 35%
15:00 +23°C° 0 mm 5 mps 761 mmHg 38%
16:00 +22°C° 0 mm 5 mps 761 mmHg 42%
17:00 +21°C° 0 mm 5 mps 761 mmHg 47%
18:00 +19°C° 0 mm 5 mps 761 mmHg 53%
19:00 +17°C° 0 mm 5 mps 761 mmHg 58%
20:00 +17°C° 0 mm 5 mps 761 mmHg 52%
21:00 +17°C° 0 mm 5 mps 761 mmHg 45%
22:00 +19°C° 0 mm 5 mps 761 mmHg 38%
23:00 +19°C° 0 mm 5 mps 761 mmHg 38%

Tomorrow, 18 June, Friday

Time Temperature Precipitation Wind Pressure Humidity
00:00 +19°C° 0 mm 5 mps 761 mmHg 37%
01:00 +19°C° 0 mm 4 mps 760 mmHg 36%
02:00 +19°C° 0 mm 4 mps 760 mmHg 37%
03:00 +19°C° 0 mm 4 mps 760 mmHg 37%
04:00 +19°C° 0 mm 4 mps 760 mmHg 37%
05:00 +19°C° 0 mm 4 mps 760 mmHg 36%
06:00 +19°C° 0 mm 4 mps 760 mmHg 35%
07:00 +19°C° 0 mm 4 mps 760 mmHg 35%
08:00 +22°C° 0 mm 5 mps 761 mmHg 30%
09:00 +26°C° 0 mm 6 mps 761 mmHg 24%
10:00 +30°C° 0 mm 6 mps 761 mmHg 19%
11:00 +32°C° 0 mm 6 mps 760 mmHg 17%
12:00 +34°C° 0 mm 6 mps 760 mmHg 15%
13:00 +36°C° 0 mm 5 mps 759 mmHg 13%
14:00 +34°C° 0 mm 5 mps 759 mmHg 15%
15:00 +33°C° 0 mm 4 mps 759 mmHg 18%
16:00 +30°C° 0 mm 3 mps 758 mmHg 20%
17:00 +29°C° 0 mm 3 mps 759 mmHg 23%
18:00 +27°C° 0 mm 2 mps 759 mmHg 25%
19:00 +25°C° 0 mm 1 mps 760 mmHg 27%
20:00 +25°C° 0 mm 2 mps 760 mmHg 26%
21:00 +25°C° 0 mm 2 mps 760 mmHg 25%
22:00 +25°C° 0 mm 2 mps 760 mmHg 24%
23:00 +24°C° 0 mm 2 mps 760 mmHg 24%

Day after tomorrow, 19 June, Saturday

Time Temperature Precipitation Wind Pressure Humidity
00:00 +24°C° 0 mm 2 mps 760 mmHg 25%
01:00 +24°C° 0 mm 3 mps 759 mmHg 25%
02:00 +24°C° 0 mm 3 mps 759 mmHg 25%
03:00 +22°C° 0 mm 3 mps 759 mmHg 25%
04:00 +22°C° 0 mm 3 mps 759 mmHg 25%
05:00 +22°C° 0 mm 3 mps 759 mmHg 25%
06:00 +22°C° 0 mm 3 mps 759 mmHg 24%
07:00 +23°C° 0 mm 4 mps 760 mmHg 23%
08:00 +26°C° 0 mm 4 mps 760 mmHg 20%
09:00 +29°C° 0 mm 5 mps 760 mmHg 16%
10:00 +33°C° 0 mm 6 mps 760 mmHg 12%
11:00 +33°C° 0 mm 5 mps 760 mmHg 13%
12:00 +32°C° 0 mm 5 mps 760 mmHg 15%
13:00 +32°C° 0 mm 5 mps 760 mmHg 16%
14:00 +30°C° 0 mm 4 mps 759 mmHg 16%
15:00 +29°C° 0 mm 3 mps 759 mmHg 17%
16:00 +29°C° 0 mm 2 mps 759 mmHg 17%
17:00 +27°C° 0 mm 2 mps 760 mmHg 19%
18:00 +26°C° 0 mm 2 mps 760 mmHg 21%
19:00 +24°C° 0 mm 2 mps 760 mmHg 23%
20:00 +24°C° 0 mm 2 mps 760 mmHg 23%
21:00 +24°C° 0 mm 2 mps 760 mmHg 23%
22:00 +24°C° 0 mm 2 mps 760 mmHg 23%
23:00 +24°C° 0 mm 2 mps 760 mmHg 22%

20 June, Sunday

Time Temperature Precipitation Wind Pressure Humidity
00:00 +24°C° 0 mm 2 mps 760 mmHg 21%
01:00 +24°C° 0 mm 2 mps 760 mmHg 21%
02:00 +24°C° 0 mm 3 mps 759 mmHg 20%
03:00 +24°C° 0 mm 3 mps 759 mmHg 20%
04:00 +23°C° 0 mm 4 mps 759 mmHg 19%
05:00 +23°C° 0 mm 4 mps 759 mmHg 20%
06:00 +23°C° 0 mm 4 mps 759 mmHg 20%
07:00 +25°C° 0 mm 5 mps 760 mmHg 21%
08:00 +27°C° 0 mm 5 mps 760 mmHg 19%
09:00 +30°C° 0 mm 6 mps 760 mmHg 17%
10:00 +33°C° 0 mm 7 mps 760 mmHg 16%
11:00 +33°C° 0 mm 6 mps 760 mmHg 16%
12:00 +33°C° 0 mm 5 mps 759 mmHg 16%
13:00 +33°C° 0 mm 4 mps 759 mmHg 16%
14:00 +31°C° 0 mm 3 mps 759 mmHg 16%
15:00 +30°C° 0 mm 2 mps 758 mmHg 16%
16:00 +30°C° 0 mm 2 mps 758 mmHg 16%
17:00 +28°C° 0 mm 1 mps 759 mmHg 18%
18:00 +26°C° 0 mm 1 mps 759 mmHg 20%
19:00 +24°C° 0 mm 1 mps 759 mmHg 22%
20:00 +25°C° 0 mm 1 mps 759 mmHg 22%
21:00 +25°C° 0 mm 2 mps 759 mmHg 21%
22:00 +25°C° 0 mm 2 mps 759 mmHg 21%
23:00 +25°C° 0 mm 2 mps 759 mmHg 21%

21 June, Monday

Time Temperature Precipitation Wind Pressure Humidity
00:00 +24°C° 0 mm 2 mps 759 mmHg 21%
01:00 +24°C° 0 mm 2 mps 759 mmHg 22%
02:00 +23°C° 0 mm 2 mps 759 mmHg 25%
03:00 +21°C° 0 mm 2 mps 759 mmHg 29%
04:00 +21°C° 0 mm 1 mps 759 mmHg 32%
05:00 +20°C° 0 mm 1 mps 759 mmHg 35%
06:00 +19°C° 0 mm 2 mps 759 mmHg 38%
07:00 +18°C° 0 mm 2 mps 759 mmHg 41%
08:00 +21°C° 0 mm 2 mps 760 mmHg 34%
09:00 +25°C° 0 mm 2 mps 760 mmHg 27%
10:00 +28°C° 0 mm 2 mps 760 mmHg 20%
11:00 +28°C° 0 mm 3 mps 759 mmHg 24%
12:00 +27°C° 0 mm 3 mps 759 mmHg 29%
13:00 +26°C° 0 mm 4 mps 759 mmHg 33%
14:00 +26°C° 0 mm 3 mps 758 mmHg 31%
15:00 +27°C° 0 mm 2 mps 758 mmHg 30%
16:00 +27°C° 0 mm 1 mps 758 mmHg 28%
17:00 +24°C° 0 mm 2 mps 759 mmHg 40%
18:00 +21°C° 0 mm 2 mps 759 mmHg 52%
19:00 +18°C° 0 mm 2 mps 760 mmHg 64%
20:00 +18°C° 0 mm 2 mps 760 mmHg 65%
21:00 +18°C° 0 mm 2 mps 760 mmHg 67%
22:00 +17°C° 0 mm 2 mps 760 mmHg 69%
23:00 +17°C° 0 mm 3 mps 760 mmHg 72%

22 June, Tuesday

Time Temperature Precipitation Wind Pressure Humidity
00:00 +17°C° 0 mm 3 mps 760 mmHg 74%
01:00 +16°C° 0 mm 3 mps 760 mmHg 76%
02:00 +16°C° 0 mm 3 mps 760 mmHg 73%
03:00 +16°C° 0 mm 3 mps 760 mmHg 71%
04:00 +16°C° 0 mm 3 mps 760 mmHg 68%
05:00 +16°C° 0 mm 3 mps 760 mmHg 65%
06:00 +16°C° 0 mm 3 mps 760 mmHg 62%
07:00 +16°C° 0 mm 3 mps 761 mmHg 59%
08:00 +18°C° 0 mm 4 mps 761 mmHg 52%
09:00 +20°C° 0 mm 4 mps 761 mmHg 45%
10:00 +22°C° 0 mm 4 mps 761 mmHg 38%
11:00 +23°C° 0 mm 5 mps 761 mmHg 39%
12:00 +24°C° 0 mm 6 mps 760 mmHg 39%
13:00 +26°C° 0 mm 6 mps 759 mmHg 39%
14:00 +24°C° 0 mm 7 mps 759 mmHg 47%
15:00 +22°C° 0 mm 7 mps 759 mmHg 55%
16:00 +21°C° 0 mm 7 mps 759 mmHg 63%
17:00 +20°C° 0 mm 6 mps 760 mmHg 70%
18:00 +19°C° 0 mm 6 mps 760 mmHg 78%
19:00 +16°C° 0 mm 5 mps 760 mmHg 85%
20:00 +16°C° 0 mm 5 mps 760 mmHg 86%
21:00 +16°C° 0 mm 5 mps 760 mmHg 86%
22:00 +15°C° 0 mm 4 mps 760 mmHg 87%
23:00 +15°C° 0 mm 4 mps 760 mmHg 85%
Show more

We Need Your Consent

Meteoprog and our Service Providers may store and access personal data such as cookies, device identifiers or other similar technologies on your device and process such data to personalise content and ads, as well as provide social media features and to analyse the traffic.

  • Store and/or access information on your device

    Cookies, device identifiers or other information can be stored or accessed on your device for the purposes indicated above.

  • Personalised ads and content, ad and content measurement, audience insights, and products development

    Ads and content can be personalised based on a profile. More data can be added to better personalise ads and content. Ad and content performance can be measured. Insights about the audience who saw the ads and content can be derived. Such data can be used to develop or improve user’s experience, systems and software.

By clicking ‘I Agree’ you will allow the use of indicated cookies, device identifiers, web beacons or other similar technologies. Your settings can be changed in the browser on your device.

For certain purposes, legitimate interests may be relied on, rather than consent. You can read more about this in our Privacy and Cookie Policy.